[[{"header":{"parameterUnit":"m.s-1","parameterCategory":1,"la1":30.2992,"la2":30.254,"lo1":-89.0895,"lo2":-89.0443,"dy":0.0025,"dx":0.0025,"nx":19,"ny":19,"refTime":"2026-04-04T21:00:00:Z","depth":0,"parameterNumber":2,"parameterNumberName":"U-component_of_WINDS"},"data":[0,0,0,-3.2608,-3.2612,-3.2785,-3.2785,-3.3023,-3.3025,0,0,0,0,0,0,0,0,0,0,0,-3.2566,-3.2567,-3.2607,-3.2612,-3.2785,-3.2786,-3.3023,-3.3025,0,0,0,0,0,0,0,0,0,0,0,-3.2565,-3.2567,-3.2569,-3.2613,-3.2785,-3.2786,-3.3022,-3.2886,0,0,0,0,0,0,0,0,0,0,-3.2715,-3.2685,-3.2566,-3.2569,-3.2614,-3.2785,-3.2786,-3.2879,-3.2894,-3.2951,0,-3.3004,0,-3.3018,-3.3042,-3.3043,0,0,0,-3.2605,-3.2672,-3.2711,-3.257,-3.2615,-3.2784,-3.2705,-3.2887,-3.2905,-3.2972,-3.3007,-3.3015,-3.3022,-3.3044,-3.3045,-3.3395,-3.3396,0,0,-3.2596,-3.2602,-3.2699,-3.2722,-3.2696,-3.2699,-3.271,-3.2898,-3.2937,-3.3008,-3.3021,-3.3026,-3.3045,-3.3047,-3.3393,-3.3395,0,0,0,-3.2573,-3.2596,-3.2629,-3.2713,-3.2743,-3.2705,-3.2717,-3.2929,-3.2939,-3.3023,-3.3029,-3.3047,-3.305,-3.3391,-3.3394,-3.3497,0,0,0,-3.2567,-3.2582,-3.2625,-3.2631,-3.274,-3.2838,-3.2744,-3.2926,-3.2947,-3.3028,-3.3047,-3.3052,-3.3388,-3.3392,-3.349,-3.3546,0,0,0,-3.2551,-3.258,-3.2608,-3.2631,-3.2705,-3.2835,-3.2855,-3.293,-3.2951,-3.3043,-3.3053,-3.3387,-3.3392,-3.3483,-3.3535,-3.3642,0,0,0,-3.2537,-3.2698,-3.261,-3.2792,-3.2704,-3.2896,-3.2854,-3.2997,-3.3089,-3.3048,-3.3389,-3.3393,-3.3481,-3.3529,-3.3635,-3.3734,-3.3776,0,0,-3.2743,-3.2723,-3.2829,-3.2756,-3.2966,-3.2869,-3.3095,-3.3173,-3.3176,-3.3322,-3.333,-3.3492,-3.3535,-3.364,-3.4001,-3.4034,0,0,0,-3.2897,-3.2974,-3.3028,-3.3115,-3.3178,-3.3237,-3.3279,-3.3308,-3.3431,-3.3252,-3.3558,-3.3583,-3.3645,-3.3692,-3.372,-3.3774,-3.3415,-3.3414,-3.3414,-3.3201,-3.3195,-3.3372,-3.3387,-3.3472,-3.3513,-3.3582,-3.3628,-3.3598,-3.367,-3.3715,-3.3934,-3.399,-3.4011,-3.4067,-3.3764,-3.3765,-3.3765,-3.3765,-3.3506,-3.3615,-3.3569,-3.3725,-3.3718,-3.3848,-3.3894,-3.3868,-3.3989,-3.39,-3.3954,-3.386,-3.4047,-3.4096,-3.3773,-3.3772,-3.3771,-3.377,-3.3769,-3.3707,-3.3758,-3.3789,-3.3915,-3.4012,-3.4021,-3.4139,-3.4128,-3.4119,-3.4172,-3.4219,-3.4217,-3.4216,-3.4194,-3.4195,-3.4196,-3.4196,-3.4197,-3.4197,-3.3904,-3.3936,-3.4037,-3.4116,-3.4171,-3.4241,-3.4283,-3.4337,-3.4394,-3.4376,-3.4377,-3.4341,-3.4065,-3.3998,-3.4209,-3.4207,-3.4206,-3.4205,-3.4204,-3.4221,-3.4147,-3.4303,-3.4358,-3.445,-3.4549,-3.4531,-3.4641,-3.4684,-3.4743,-3.4694,-3.4491,-3.447,-3.4447,-3.4392,-3.4693,-3.4693,-3.4693,-3.4693,-3.4393,-3.4379,-3.4537,-3.4626,-3.471,-3.4711,-3.4889,-3.4923,-3.4946,-3.4973,-3.4926,-3.4851,-3.4828,-3.482,-3.479,-3.4738,-3.5121,-3.5121,-3.5121,-3.4588,-3.4583,-3.4737,-3.4758,-3.4829,-3.4891,-3.5058,-3.5162,-3.5173,-3.5139,-3.4993,-3.4975,-3.4853,-3.4812,-3.4778,-3.4731,-3.4636,0,0]},{"header":{"parameterUnit":"m.s-1","parameterCategory":1,"la1":30.2992,"la2":30.254,"lo1":-89.0895,"lo2":-89.0443,"dy":0.0025,"dx":0.0025,"nx":19,"ny":19,"refTime":"2026-04-04T21:00:00:Z","depth":0,"parameterNumber":3,"parameterNumberName":"V-component_of_WINDS"},"data":[0,0,0,-6.7545,-6.7548,-6.7697,-6.7698,-6.7902,-6.7904,0,0,0,0,0,0,0,0,0,0,0,-6.7513,-6.7515,-6.7544,-6.7548,-6.7697,-6.7698,-6.7902,-6.7904,0,0,0,0,0,0,0,0,0,0,0,-6.7512,-6.7514,-6.7516,-6.7549,-6.7697,-6.7698,-6.7902,-6.7783,0,0,0,0,0,0,0,0,0,0,-6.7636,-6.7619,-6.7514,-6.7516,-6.755,-6.7697,-6.7698,-6.7777,-6.7791,-6.7842,0,-6.7895,0,-6.7903,-6.7919,-6.792,0,0,0,-6.7538,-6.7608,-6.7638,-6.7517,-6.7551,-6.7697,-6.7627,-6.7785,-6.78,-6.786,-6.7897,-6.7904,-6.7907,-6.7921,-6.7922,-6.8261,-6.8263,0,0,-6.753,-6.7545,-6.7627,-6.7648,-6.763,-6.7622,-6.7632,-6.7793,-6.7834,-6.7898,-6.7909,-6.791,-6.7922,-6.7924,-6.8259,-6.8262,0,0,0,-6.7513,-6.754,-6.7565,-6.764,-6.7666,-6.7627,-6.7638,-6.7826,-6.7833,-6.7911,-6.7912,-6.7924,-6.7926,-6.8257,-6.826,-6.8379,0,0,0,-6.7508,-6.753,-6.7562,-6.7573,-6.7664,-6.7749,-6.7668,-6.7822,-6.784,-6.7911,-6.7924,-6.7929,-6.8255,-6.8259,-6.8371,-6.8432,0,0,0,-6.7499,-6.7529,-6.7555,-6.7573,-6.7638,-6.7746,-6.7762,-6.7826,-6.7842,-6.792,-6.7929,-6.8253,-6.8258,-6.8364,-6.842,-6.8527,0,0,0,-6.7492,-6.7657,-6.7557,-6.7741,-6.7637,-6.7819,-6.7761,-6.7895,-6.7976,-6.7925,-6.8255,-6.826,-6.8361,-6.8413,-6.8519,-6.862,-6.8663,0,0,-6.7708,-6.7683,-6.779,-6.7705,-6.791,-6.7795,-6.8015,-6.8074,-6.8065,-6.8195,-6.8204,-6.8373,-6.8419,-6.8525,-6.89,-6.8935,0,0,0,-6.7863,-6.794,-6.7991,-6.8071,-6.8122,-6.8169,-6.8193,-6.8214,-6.8325,-6.8137,-6.844,-6.8466,-6.8528,-6.8575,-6.8605,-6.8656,-6.8283,-6.8282,-6.8282,-6.819,-6.8173,-6.8348,-6.8349,-6.8427,-6.845,-6.8511,-6.8543,-6.85,-6.8572,-6.8611,-6.8841,-6.8898,-6.892,-6.8974,-6.8662,-6.8663,-6.8663,-6.8663,-6.8505,-6.8611,-6.8553,-6.8702,-6.8681,-6.8804,-6.8832,-6.8798,-6.8908,-6.8811,-6.8864,-6.8759,-6.8958,-6.9004,-6.8672,-6.8671,-6.867,-6.8669,-6.8668,-6.8718,-6.8766,-6.8791,-6.8905,-6.8994,-6.8987,-6.9096,-6.9072,-6.905,-6.9103,-6.9141,-6.9139,-6.9134,-6.9123,-6.9123,-6.9124,-6.9125,-6.9126,-6.9126,-6.8929,-6.8954,-6.9051,-6.9119,-6.9166,-6.9226,-6.925,-6.9296,-6.934,-6.9313,-6.9314,-6.9264,-6.8982,-6.8911,-6.9138,-6.9136,-6.9135,-6.9133,-6.9133,-6.9256,-6.9178,-6.9329,-6.9377,-6.9454,-6.9543,-6.9512,-6.9606,-6.964,-6.9694,-6.9633,-6.9428,-6.94,-6.9376,-6.9318,-6.9637,-6.9637,-6.9637,-6.9637,-6.9436,-6.942,-6.9568,-6.9648,-6.9722,-6.9708,-6.9875,-6.9895,-6.9902,-6.9921,-6.9871,-6.9791,-6.9768,-6.9754,-6.9722,-6.9667,-7.0067,-7.0068,-7.0068,-6.9636,-6.9626,-6.9775,-6.9784,-6.9842,-6.9891,-7.0048,-7.0138,-7.0129,-7.0085,-6.9935,-6.9917,-6.9788,-6.9747,-6.9701,-6.9652,-6.9551,0,0]}]]